Find WHDW 20-03

NORAD ID: 68131 Int'l Des: 2026-047 Owner: ZXW Country: CN Constellation: xingwang operational
LEOCIRCULAR

Live Position

Loading 3D Globe...

About WHDW 20-03

Description loading...

Upcoming Passes

Passes for default location (London). Set your location on the main map for personalized predictions.

Altitude History

Loading altitude history...

Two-Line Element Set

1 68131U 26047C 26119.61090286 -.00000122 00000-0 11014-4 0 9996
2 68131 50.0092 230.7904 0001156 114.6343 245.4656 13.42190872 6608
Epoch: Apr 29, 2026 • Age: 10 hours

Current Status

Altitude 1104.3 km
Velocity 7.31 km/s
Sub-Earth Point 43.16°N, 137.22°E
Launch Date Mar 12, 2026
Age 0.1 years
Type other

Technical Details

Classification Payload
Mass 700.00 kg
Dry Mass 700.00 kg
Total Mass 700.00 kg
Length 3.00 m
Diameter 1.00 m
Span 10.00 m
Shape Box + 2 Pan
Manufacturer CAST
Bus Type Xingwang C
Phase Status In Orbit
Owner/State ZXW/CN

Most Searched